period_start,C,m1,H,J0,J1,J2,J3,J4,J5,JA,JB,JC,JD,JJ,JK,JN,#
2015-04-29 00:03:13,0.18,0.55,0.00,23.52,27.22,29.98,4.75,26.44,1010.76,2034.00,3176.68,3163.39,3439.54,350.12,345.12,2.46,0000 0000 0000 0000 000000
2015-04-29 00:08:15,0.17,0.55,0.00,23.54,27.22,29.97,4.71,26.44,1010.76,2034.00,3174.35,3161.81,3437.83,349.64,344.70,2.49,0000 0000 0000 0000 000000
2015-04-29 00:13:16,0.15,0.56,0.00,23.56,27.22,29.96,4.77,26.47,1010.76,2034.00,3172.39,3160.47,3436.40,350.57,345.51,2.52,0000 0000 0000 0000 000000
2015-04-29 00:18:17,0.21,0.56,0.00,23.58,27.22,29.99,4.78,26.47,1010.76,2034.00,3169.90,3158.84,3434.62,350.13,345.17,2.54,0000 0000 0000 0000 000000
2015-04-29 00:23:19,0.29,0.57,0.00,23.60,27.22,30.00,4.76,26.43,1010.76,2034.01,3166.37,3156.43,3432.05,349.85,344.85,2.57,0000 0000 0000 0000 000000
2015-04-29 00:28:20,0.18,0.58,0.00,23.62,27.21,29.94,4.73,26.40,1010.76,2034.01,3163.49,3154.47,3430.00,349.88,344.84,2.60,0000 0000 0000 0000 000000
2015-04-29 00:33:21,0.14,0.58,0.00,23.64,27.21,29.97,4.70,26.43,1010.76,2034.00,3161.60,3153.34,3428.67,350.17,345.04,2.63,0000 0000 0000 0000 000000
2015-04-29 00:38:22,0.16,0.59,0.00,23.64,27.21,29.98,4.81,26.43,1010.72,2034.00,3159.54,3151.82,3427.20,350.18,345.31,2.66,0000 0000 0000 0000 000000
2015-04-29 00:43:23,0.08,0.59,0.00,23.56,27.21,30.00,4.68,26.41,1010.68,2034.00,3158.07,3150.96,3426.09,349.70,344.63,2.69,0000 0000 0000 0000 000000
2015-04-29 00:48:25,0.12,0.59,0.00,23.55,27.22,29.95,4.69,26.43,1010.73,2034.01,3156.64,3149.98,3425.12,349.65,344.62,2.72,0000 0000 0000 0000 000000
2015-04-29 00:53:26,0.13,0.60,0.00,23.54,27.21,29.88,4.81,26.53,1010.74,2034.01,3155.01,3148.87,3423.89,350.74,345.81,2.75,0000 0000 0000 0000 000000
2015-04-29 00:58:28,0.14,0.60,0.00,23.50,27.21,29.94,4.74,26.46,1010.75,2034.00,3153.23,3147.69,3422.53,349.93,344.96,2.78,0000 0000 0000 0000 000000
2015-04-29 01:03:29,0.15,0.60,0.00,23.52,27.22,29.95,4.79,26.38,1010.75,2034.00,3151.32,3146.39,3421.12,349.62,344.90,2.81,0000 0000 0000 0000 000000
2015-04-29 01:08:30,0.11,0.61,0.00,23.48,27.21,29.85,4.76,26.26,1010.76,2034.00,3149.64,3145.20,3419.98,350.91,346.02,2.84,0000 0000 0000 0000 000000
2015-04-29 01:13:31,0.10,0.61,0.00,23.38,27.20,29.72,4.82,26.41,1010.76,2034.00,3148.26,3144.44,3418.97,350.27,345.56,2.87,0000 0000 0000 0000 000000
2015-04-29 01:18:32,0.11,0.61,0.00,23.40,27.20,29.84,4.76,26.43,1010.75,2034.00,3146.71,3143.49,3417.90,350.21,345.43,2.90,0000 0000 0000 0000 000000
2015-04-29 01:23:33,0.15,0.62,0.00,23.52,27.20,29.94,4.76,26.42,1010.67,2034.00,3144.90,3142.33,3416.60,350.58,345.30,2.93,0000 0000 0000 0000 000000
2015-04-29 01:28:35,0.21,0.62,0.00,23.53,27.20,29.88,4.72,26.28,1010.57,2034.00,3142.22,3140.61,3414.75,349.24,344.25,2.95,0000 0000 0000 0000 000000
2015-04-29 01:33:36,0.17,0.63,0.00,23.45,27.20,29.78,4.76,26.46,1010.59,2034.00,3139.59,3138.93,3413.03,350.10,345.20,2.98,0000 0000 0000 0000 000000
2015-04-29 01:38:37,0.20,0.64,0.00,23.54,27.20,29.77,4.79,26.49,1010.66,2034.00,3136.94,3137.34,3411.30,350.24,345.18,3.01,0000 0000 0000 0000 000000
2015-04-29 01:43:38,0.22,0.64,0.00,23.54,27.20,29.75,4.78,26.51,1010.51,2034.00,3134.20,3135.57,3409.35,350.07,344.94,3.04,0000 0000 0000 0000 000000
2015-04-29 01:48:40,0.20,0.65,0.00,23.55,27.20,29.80,4.72,26.40,1010.47,2034.00,3131.33,3133.83,3407.43,349.99,344.91,3.07,0000 0000 0000 0000 000000
2015-04-29 01:53:41,0.14,0.65,0.00,23.59,27.20,29.86,4.73,26.37,1010.60,2034.00,3129.25,3132.48,3405.90,349.90,344.85,3.10,0000 0000 0000 0000 000000
2015-04-29 01:58:42,0.18,0.66,0.00,23.47,27.20,29.70,4.67,26.52,1010.58,2034.00,3126.99,3131.06,3404.39,349.86,344.77,3.13,0000 0000 0000 0000 000000
2015-04-29 02:03:43,0.20,0.66,0.00,23.50,27.20,29.69,4.73,26.59,1010.64,2034.00,3124.43,3129.35,3402.60,349.60,344.70,3.16,0000 0000 0000 0000 000000
2015-04-29 02:08:44,0.20,0.67,0.00,23.53,27.20,29.67,4.73,26.50,1010.61,2034.01,3122.00,3127.69,3400.89,350.41,345.42,3.19,0000 0000 0000 0000 000000
2015-04-29 02:13:46,0.37,0.68,0.00,23.58,27.20,29.67,4.78,26.47,1010.47,2034.00,3117.89,3124.94,3397.97,349.95,344.86,3.22,0000 0000 0000 0000 000000
2015-04-29 02:18:47,0.35,0.69,0.00,23.59,27.20,29.67,4.73,26.52,1010.44,2034.00,3113.14,3121.66,3394.46,350.04,345.09,3.25,0000 0000 0000 0000 000000
2015-04-29 02:23:49,0.22,0.70,0.00,23.55,27.19,29.67,4.77,26.39,1010.45,2034.00,3109.89,3119.58,3392.26,349.52,344.54,3.28,0000 0000 0000 0000 000000
2015-04-29 02:28:50,0.15,0.70,0.00,23.57,27.18,29.73,4.77,26.45,1010.61,2034.01,3107.76,3118.20,3390.81,349.96,345.11,3.31,0000 0000 0000 0000 000000
2015-04-29 02:33:51,0.15,0.71,0.00,23.65,27.17,29.76,4.71,26.40,1010.58,2034.01,3105.81,3116.92,3389.61,349.63,344.64,3.34,0000 0000 0000 0000 000000
2015-04-29 02:38:52,0.17,0.71,0.00,23.55,27.17,29.71,4.74,26.38,1010.59,2034.00,3103.47,3115.53,3388.10,349.86,345.09,3.36,0000 0000 0000 0000 000000
2015-04-29 02:43:53,0.15,0.72,0.00,23.46,27.17,29.66,4.77,26.47,1010.62,2034.00,3101.48,3114.32,3386.75,350.42,345.51,3.39,0000 0000 0000 0000 000000
2015-04-29 02:48:55,0.16,0.72,0.00,23.56,27.17,29.69,4.73,26.43,1010.71,2034.00,3099.23,3112.93,3385.29,350.17,345.04,3.42,0000 0000 0000 0000 000000
2015-04-29 02:53:56,0.20,0.73,0.00,23.55,27.17,29.73,4.75,26.43,1010.65,2034.00,3096.57,3111.36,3383.62,350.01,344.97,3.45,0000 0000 0000 0000 000000
2015-04-29 02:58:57,0.21,0.73,0.00,23.50,27.17,29.66,4.80,26.39,1010.72,2034.00,3093.83,3109.70,3381.80,350.23,345.33,3.48,0000 0000 0000 0000 000000
2015-04-29 03:03:58,0.22,0.74,0.00,23.52,27.17,29.71,4.76,26.51,1010.69,2034.00,3090.68,3107.90,3379.92,350.07,344.92,3.51,0000 0000 0000 0000 000000
2015-04-29 03:09:00,0.25,0.75,0.00,23.49,27.17,29.64,4.80,26.48,1010.74,2034.01,3086.89,3106.01,3377.83,350.01,345.12,3.54,0000 0000 0000 0000 000000
2015-04-29 03:14:01,0.14,0.75,0.00,23.51,27.15,29.66,4.64,26.41,1010.74,2034.01,3084.39,3104.77,3376.48,349.63,344.93,3.57,0000 0000 0000 0000 000000
2015-04-29 03:19:02,0.11,0.76,0.00,23.58,27.15,29.67,4.74,26.49,1010.75,2034.01,3082.79,3103.88,3375.58,350.12,344.95,3.60,0000 0000 0000 0000 000000
2015-04-29 03:24:03,0.09,0.76,0.00,23.45,27.15,29.71,4.73,26.42,1010.69,2034.01,3081.51,3103.04,3374.73,350.08,345.27,3.63,0000 0000 0000 0000 000000
2015-04-29 03:29:05,0.08,0.76,0.00,23.49,27.15,29.65,4.65,26.43,1010.72,2034.00,3080.49,3102.34,3374.02,349.46,344.64,3.66,0000 0000 0000 0000 000000
2015-04-29 03:34:06,0.04,0.76,0.00,23.53,27.15,29.69,4.71,26.51,1010.75,2034.01,3079.73,3101.99,3373.51,350.14,345.01,3.69,0000 0000 0000 0000 000000
2015-04-29 03:39:08,0.06,0.77,0.00,23.45,27.15,29.66,4.76,26.55,1010.76,2034.01,3078.94,3101.22,3372.99,350.10,345.28,3.72,0000 0000 0000 0000 000000
2015-04-29 03:44:09,0.05,0.77,0.00,23.50,27.15,29.64,4.75,26.44,1010.76,2034.02,3078.13,3101.00,3372.42,349.93,345.08,3.75,0000 0000 0000 0000 000000
2015-04-29 03:49:10,0.05,0.77,0.00,23.56,27.15,29.69,4.76,26.49,1010.76,2034.00,3077.46,3100.66,3372.00,350.15,345.14,3.77,0000 0000 0000 0000 000000
2015-04-29 03:54:12,0.06,0.77,0.00,23.50,27.15,29.72,4.82,26.49,1010.76,2034.00,3076.80,3100.04,3371.49,350.21,345.48,3.80,0000 0000 0000 0000 000000
2015-04-29 03:59:13,0.04,0.77,0.00,23.49,27.15,29.67,4.75,26.52,1010.75,2034.01,3076.03,3099.81,3371.00,350.11,345.18,3.83,0000 0000 0000 0000 000000
2015-04-29 04:04:14,0.08,0.77,0.00,23.51,27.14,29.71,4.75,26.64,1010.75,2034.01,3075.16,3099.06,3370.32,349.94,344.93,3.86,0000 0000 0000 0000 000000
2015-04-29 04:09:15,0.04,0.78,0.00,23.33,27.14,29.80,4.73,26.57,1010.76,2034.00,3074.24,3098.81,3369.98,349.94,345.28,3.89,0000 0000 0000 0000 000000
2015-04-29 04:14:17,0.08,0.78,0.00,23.22,27.13,29.88,4.85,26.56,1010.76,2034.02,3073.65,3098.12,3369.36,350.56,346.02,3.92,0000 0000 0000 0000 000000
2015-04-29 04:19:18,0.03,0.78,0.00,23.15,27.12,29.88,4.72,26.51,1010.76,2034.02,3072.85,3097.95,3368.98,349.85,345.27,3.95,0000 0000 0000 0000 000000
2015-04-29 04:24:20,0.07,0.78,0.00,23.09,27.12,29.90,4.71,26.43,1010.76,2034.00,3072.04,3097.23,3368.27,349.56,345.32,3.98,0000 0000 0000 0000 000000
2015-04-29 04:29:21,0.04,0.78,0.00,23.24,27.11,29.88,4.75,26.55,1010.76,2034.03,3071.34,3096.99,3367.98,350.16,345.65,4.01,0000 0000 0000 0000 000000
2015-04-29 04:34:22,0.06,0.78,0.00,23.44,27.12,29.82,4.71,26.43,1010.76,2034.02,3070.86,3096.51,3367.36,350.05,345.15,4.04,0000 0000 0000 0000 000000
2015-04-29 04:39:23,0.03,0.79,0.00,23.51,27.12,29.84,4.67,26.47,1010.76,2034.01,3070.05,3096.01,3367.00,350.00,344.89,4.07,0000 0000 0000 0000 000000
2015-04-29 04:44:24,0.03,0.79,0.00,23.57,27.12,29.89,4.68,26.49,1010.76,2034.02,3069.64,3095.94,3366.59,349.29,344.32,4.10,0000 0000 0000 0000 000000
2015-04-29 04:49:26,0.05,0.79,0.00,23.52,27.12,29.88,4.82,26.52,1010.76,2034.01,3069.01,3095.31,3366.04,350.26,345.40,4.13,0000 0000 0000 0000 000000
2015-04-29 04:54:26,0.03,0.79,0.00,23.50,27.12,29.86,4.71,26.38,1010.76,2034.02,3068.58,3095.01,3365.99,350.02,344.99,4.16,0000 0000 0000 0000 000000
2015-04-29 04:59:28,0.02,0.79,0.00,23.59,27.14,29.82,4.71,26.48,1010.76,2034.02,3068.02,3094.99,3365.65,349.84,344.85,4.18,0000 0000 0000 0000 000000
2015-04-29 05:04:29,0.06,0.79,0.00,23.46,27.14,29.89,4.77,26.43,1010.76,2034.01,3067.63,3094.56,3365.03,349.41,344.56,4.21,0000 0000 0000 0000 000000
2015-04-29 05:09:30,0.02,0.79,0.00,23.27,27.15,29.96,4.72,26.67,1010.76,2034.01,3067.01,3094.02,3364.98,349.76,345.25,4.24,0000 0000 0000 0000 000000
2015-04-29 05:14:31,0.02,0.79,0.00,23.25,27.14,29.98,4.75,26.51,1010.76,2034.02,3066.76,3094.00,3364.65,349.90,345.31,4.27,0000 0000 0000 0000 000000
2015-04-29 05:19:33,0.07,0.79,0.00,23.17,27.13,29.96,4.77,26.48,1010.76,2034.01,3065.79,3093.58,3364.02,350.01,345.60,4.30,0000 0000 0000 0000 000000
2015-04-29 05:24:34,0.07,0.80,0.00,23.11,27.12,29.95,4.70,26.51,1010.76,2034.00,3064.60,3092.99,3363.31,349.76,345.32,4.33,0000 0000 0000 0000 000000
2015-04-29 05:29:36,0.04,0.80,0.00,23.09,27.12,29.97,4.77,26.38,1010.76,2034.01,3063.94,3092.44,3362.98,349.95,345.42,4.36,0000 0000 0000 0000 000000
2015-04-29 05:34:37,0.05,0.80,0.00,23.23,27.12,29.95,4.74,26.46,1010.76,2034.01,3063.12,3092.01,3362.39,349.95,345.22,4.39,0000 0000 0000 0000 000000
2015-04-29 05:39:38,0.06,0.80,0.00,23.38,27.12,29.85,4.80,26.53,1010.76,2034.01,3062.24,3091.55,3361.97,350.28,345.69,4.42,0000 0000 0000 0000 000000
2015-04-29 05:44:40,0.06,0.80,0.00,23.58,27.14,29.85,4.74,26.48,1010.76,2034.01,3061.27,3091.01,3361.19,349.70,344.72,4.45,0000 0000 0000 0000 000000
2015-04-29 05:49:41,0.05,0.81,0.00,23.58,27.15,29.93,4.73,26.54,1010.76,2034.01,3060.36,3090.75,3360.94,350.35,345.20,4.48,0000 0000 0000 0000 000000
2015-04-29 05:54:42,0.05,0.81,0.00,23.47,27.15,29.97,4.75,26.62,1010.76,2034.00,3059.91,3090.07,3360.23,350.16,345.27,4.51,0000 0000 0000 0000 000000
2015-04-29 05:59:43,0.03,0.81,0.00,23.35,27.16,29.99,4.83,26.48,1010.76,2034.00,3059.11,3089.95,3359.98,350.17,345.49,4.54,0000 0000 0000 0000 000000
2015-04-29 06:04:44,0.08,0.81,0.00,23.31,27.17,30.05,4.79,26.57,1010.76,2034.00,3058.64,3089.37,3359.48,350.02,345.17,4.57,0000 0000 0000 0000 000000
2015-04-29 06:09:45,0.02,0.81,0.00,23.22,27.17,30.04,4.75,26.62,1010.76,2034.00,3058.00,3089.01,3359.00,350.25,345.54,4.59,0000 0000 0000 0000 000000
2015-04-29 06:14:46,0.04,0.81,0.00,23.17,27.15,30.02,4.68,26.60,1010.76,2034.00,3057.30,3088.93,3358.75,349.28,344.97,4.62,0000 0000 0000 0000 000000
2015-04-29 06:19:48,0.05,0.81,0.00,23.13,27.15,29.98,4.80,26.55,1010.76,2034.00,3056.97,3088.30,3358.06,350.61,346.09,4.65,0000 0000 0000 0000 000000
2015-04-29 06:24:49,0.03,0.82,0.00,23.24,27.15,30.01,4.73,26.56,1010.76,2034.00,3056.36,3088.01,3357.94,349.51,344.78,4.68,0000 0000 0000 0000 000000
2015-04-29 06:29:51,0.06,0.82,0.00,23.48,27.16,29.95,4.76,26.65,1010.76,2034.00,3055.80,3087.64,3357.12,350.06,345.17,4.71,0000 0000 0000 0000 000000
2015-04-29 06:34:52,0.06,0.82,0.00,23.62,27.17,29.93,4.77,26.54,1010.76,2034.00,3054.93,3087.01,3356.63,349.94,344.97,4.74,0000 0000 0000 0000 000000
2015-04-29 06:39:53,0.05,0.82,0.00,23.60,27.17,29.95,4.75,26.47,1010.76,2034.00,3054.07,3086.75,3356.02,350.38,345.21,4.77,0000 0000 0000 0000 000000
2015-04-29 06:44:54,0.07,0.82,0.00,23.69,27.19,29.95,4.72,26.48,1010.76,2033.99,3053.48,3086.07,3355.59,350.02,344.97,4.80,0000 0000 0000 0000 000000
2015-04-29 06:49:55,0.02,0.82,0.00,23.66,27.20,29.98,4.79,26.53,1010.76,2033.99,3052.89,3085.91,3355.02,350.12,344.85,4.83,0000 0000 0000 0000 000000
2015-04-29 06:54:56,0.07,0.83,0.00,23.47,27.20,30.03,4.69,26.43,1010.76,2033.99,3052.07,3085.16,3354.74,349.63,344.66,4.86,0000 0000 0000 0000 000000
2015-04-29 06:59:58,0.04,0.83,0.00,23.46,27.20,29.99,4.66,26.49,1010.76,2033.99,3051.38,3084.98,3354.04,349.64,344.73,4.89,0000 0000 0000 0000 000000
2015-04-29 07:04:59,0.08,0.83,0.00,23.41,27.20,30.09,4.72,26.49,1010.77,2033.99,3050.54,3084.25,3353.54,349.52,344.80,4.92,0000 0000 0000 0000 000000
2015-04-29 07:10:00,0.03,0.83,0.00,23.33,27.20,30.09,4.74,26.50,1010.82,2033.99,3049.75,3083.97,3353.00,349.97,345.38,4.95,0000 0000 0000 0000 000000
2015-04-29 07:15:01,0.09,0.83,0.00,23.31,27.20,30.05,4.75,26.45,1010.93,2033.98,3048.89,3083.20,3352.25,350.40,345.77,4.98,0000 0000 0000 0000 000000
2015-04-29 07:20:03,0.06,0.83,0.00,23.28,27.20,30.08,4.74,26.45,1010.90,2033.99,3047.97,3082.77,3351.70,350.18,345.51,5.00,0000 0000 0000 0000 000000
2015-04-29 07:25:04,0.07,0.84,0.00,23.25,27.19,30.04,4.70,26.39,1010.91,2033.99,3047.02,3082.02,3350.96,349.42,345.01,5.03,0000 0000 0000 0000 000000
2015-04-29 07:30:05,0.12,0.84,0.00,23.37,27.19,30.00,4.77,26.47,1011.10,2033.99,3045.82,3081.16,3349.92,350.15,345.37,5.06,0000 0000 0000 0000 000000
2015-04-29 07:35:07,0.14,0.84,0.00,23.56,27.20,29.96,4.77,26.62,1011.18,2033.99,3044.42,3079.94,3348.64,350.10,345.27,5.09,0000 0000 0000 0000 000000
2015-04-29 07:40:08,0.17,0.85,0.00,23.70,27.20,29.98,4.79,26.42,1011.24,2033.99,3042.54,3078.59,3347.01,350.39,345.34,5.12,0000 0000 0000 0000 000000
2015-04-29 07:45:09,0.28,0.86,0.00,23.75,27.20,29.99,4.68,26.43,1011.24,2033.98,3038.95,3076.61,3344.90,349.81,344.88,5.15,0000 0000 0000 0000 000000
2015-04-29 07:50:10,0.29,0.87,0.00,23.62,27.22,30.06,4.76,26.51,1011.25,2033.98,3034.42,3074.34,3342.46,349.86,344.99,5.18,0000 0000 0000 0000 000000
2015-04-29 07:55:11,0.27,0.87,0.00,23.62,27.22,30.04,4.74,26.42,1011.25,2033.98,3030.58,3072.38,3340.31,349.89,345.03,5.21,0000 0000 0000 0000 000000
2015-04-29 08:00:13,0.21,0.88,0.00,23.61,27.22,30.06,4.74,26.52,1011.25,2033.95,3027.23,3070.65,3338.39,350.27,345.58,5.24,0000 0000 0000 0000 000000
2015-04-29 08:05:14,0.13,0.89,0.00,23.54,27.22,30.09,4.72,26.48,1011.25,2033.96,3025.17,3069.50,3337.12,350.22,345.56,5.27,0000 0000 0000 0000 000000
2015-04-29 08:10:16,0.11,0.89,0.00,23.47,27.22,30.11,4.69,26.45,1011.27,2033.95,3023.68,3068.66,3336.10,349.72,345.03,5.30,0000 0000 0000 0000 000000
2015-04-29 08:15:17,0.16,0.89,0.00,23.42,27.22,30.12,4.75,26.42,1011.26,2033.96,3021.61,3067.38,3334.72,349.87,345.27,5.33,0000 0000 0000 0000 000000
2015-04-29 08:20:18,0.15,0.90,0.00,23.39,27.22,30.11,4.69,26.38,1011.27,2033.94,3019.62,3065.99,3333.28,350.02,345.36,5.36,0000 0000 0000 0000 000000
2015-04-29 08:25:19,0.10,0.90,0.00,23.35,27.22,30.12,4.79,26.36,1011.26,2033.95,3018.20,3065.04,3332.26,349.78,345.18,5.39,0000 0000 0000 0000 000000
2015-04-29 08:30:20,0.12,0.91,0.00,23.35,27.22,30.14,4.73,26.35,1011.25,2033.96,3016.81,3064.13,3331.23,350.05,345.49,5.41,0000 0000 0000 0000 000000
2015-04-29 08:35:22,0.14,0.91,0.00,23.35,27.22,30.12,4.84,26.48,1011.26,2033.96,3015.26,3063.04,3330.05,350.47,345.87,5.44,0000 0000 0000 0000 000000
2015-04-29 08:40:23,0.18,0.91,0.00,23.32,27.22,30.12,4.73,26.44,1011.25,2033.95,3013.12,3061.41,3328.39,349.69,345.16,5.47,0000 0000 0000 0000 000000
2015-04-29 08:45:24,0.19,0.92,0.00,23.34,27.22,30.11,4.76,26.39,1011.25,2033.96,3011.00,3059.90,3326.76,349.78,345.15,5.50,0000 0000 0000 0000 000000
2015-04-29 08:50:25,0.33,0.93,0.00,23.34,27.20,30.11,4.75,26.53,1011.26,2033.97,3007.51,3057.34,3324.11,349.90,345.37,5.53,0000 0000 0000 0000 000000
2015-04-29 08:55:27,0.50,0.94,0.00,23.32,27.20,30.09,4.72,26.42,1011.27,2033.97,3002.07,3053.48,3319.94,349.71,345.19,5.56,0000 0000 0000 0000 000000
2015-04-29 09:00:28,0.60,0.96,0.00,23.32,27.20,30.10,4.75,26.36,1011.29,2033.96,2995.43,3048.49,3314.70,350.41,345.74,5.59,0000 0000 0000 0000 000000
2015-04-29 09:05:29,0.53,0.97,0.00,23.32,27.20,30.09,4.78,26.44,1011.30,2033.95,2989.13,3043.78,3309.68,350.59,346.08,5.62,0000 0000 0000 0000 000000
2015-04-29 09:10:31,0.43,0.99,0.00,23.31,27.20,30.08,4.83,26.52,1011.26,2033.87,2983.61,3039.79,3305.44,350.20,345.69,5.65,0000 0000 0000 0000 000000
2015-04-29 09:15:32,0.27,1.00,0.00,23.34,27.19,30.05,4.78,26.36,1011.28,2033.93,2980.21,3037.40,3302.94,350.75,346.02,5.68,0000 0000 0000 0000 000000
2015-04-29 09:20:33,0.19,1.00,0.00,23.34,27.17,30.05,4.79,26.42,1011.33,2033.95,2977.75,3035.78,3301.19,349.99,345.46,5.71,0000 0000 0000 0000 000000
2015-04-29 09:25:35,0.17,1.01,0.00,23.33,27.17,30.04,4.74,26.41,1011.42,2033.97,2975.80,3034.46,3299.73,349.86,345.39,5.74,0000 0000 0000 0000 000000
2015-04-29 09:30:36,0.12,1.01,0.00,23.35,27.17,30.03,4.74,26.50,1011.52,2033.96,2974.10,3033.32,3298.59,350.03,345.48,5.77,0000 0000 0000 0000 000000
2015-04-29 09:35:38,0.13,1.02,0.00,23.35,27.17,30.03,4.68,26.39,1011.45,2033.98,2972.64,3032.33,3297.55,349.30,344.82,5.80,0000 0000 0000 0000 000000
2015-04-29 09:40:39,0.09,1.02,0.00,23.35,27.15,30.03,4.73,26.52,1011.57,2033.97,2971.44,3031.55,3296.64,349.75,345.45,5.82,0000 0000 0000 0000 000000
2015-04-29 09:45:40,0.04,1.02,0.00,23.36,27.15,30.03,4.75,26.46,1011.61,2033.98,2970.65,3030.99,3296.02,350.26,345.74,5.85,0000 0000 0000 0000 000000
2015-04-29 09:50:41,0.08,1.02,0.00,23.38,27.15,30.02,4.86,26.46,1011.63,2033.98,2969.86,3030.23,3295.43,350.32,345.70,5.88,0000 0000 0000 0000 000000
2015-04-29 09:55:43,0.03,1.03,0.00,23.37,27.15,30.01,4.70,26.44,1011.66,2033.98,2969.09,3030.00,3295.00,349.66,345.42,5.91,0000 0000 0000 0000 000000
2015-04-29 10:00:44,0.08,1.03,0.00,23.37,27.15,30.00,4.73,26.35,1011.67,2033.99,2968.55,3029.51,3294.46,349.76,345.33,5.94,0000 0000 0000 0000 000000
2015-04-29 10:05:46,0.10,1.03,0.00,23.39,27.14,29.97,4.75,26.55,1011.67,2033.99,2967.55,3028.69,3293.57,349.57,345.12,5.97,0000 0000 0000 0000 000000
2015-04-29 10:10:47,0.12,1.03,0.00,23.38,27.14,29.96,4.71,26.31,1011.65,2033.99,2966.22,3027.60,3292.33,349.70,345.25,6.00,0000 0000 0000 0000 000000
2015-04-29 10:15:48,0.14,1.04,0.00,23.38,27.13,29.94,4.72,26.29,1011.65,2033.99,2964.72,3026.37,3290.94,349.65,345.06,6.03,0000 0000 0000 0000 000000
2015-04-29 10:20:49,0.11,1.04,0.00,23.40,27.13,29.89,4.78,26.39,1011.69,2033.99,2963.39,3025.25,3289.80,350.48,346.01,6.06,0000 0000 0000 0000 000000
2015-04-29 10:25:51,0.11,1.05,0.00,23.41,27.12,29.84,4.70,26.22,1011.71,2033.99,2962.02,3024.29,3288.81,349.72,345.33,6.09,0000 0000 0000 0000 000000
2015-04-29 10:30:52,0.08,1.05,0.00,23.40,27.12,29.79,4.73,26.40,1011.71,2033.99,2960.91,3023.57,3287.95,350.07,345.73,6.12,0000 0000 0000 0000 000000
2015-04-29 10:35:54,0.13,1.05,0.00,23.41,27.13,29.74,4.74,26.32,1011.73,2033.99,2959.70,3022.56,3286.83,349.91,345.68,6.15,0000 0000 0000 0000 000000
2015-04-29 10:40:55,0.13,1.06,0.00,23.41,27.13,29.73,4.77,26.42,1011.73,2033.99,2958.22,3021.40,3285.60,350.28,345.81,6.18,0000 0000 0000 0000 000000
2015-04-29 10:45:56,0.13,1.06,0.00,23.38,27.14,29.74,4.77,26.37,1011.73,2033.99,2956.71,3020.25,3284.38,349.80,345.33,6.21,0000 0000 0000 0000 000000
2015-04-29 10:50:58,0.15,1.06,0.00,23.37,27.14,29.83,4.70,26.40,1011.73,2033.99,2955.12,3018.93,3282.86,350.42,345.91,6.24,0000 0000 0000 0000 000000
2015-04-29 10:55:59,0.15,1.07,0.00,23.35,27.15,29.83,4.76,26.33,1011.73,2033.99,2953.51,3017.75,3281.63,350.17,345.77,6.26,0000 0000 0000 0000 000000
2015-04-29 11:01:01,0.15,1.07,0.00,23.31,27.15,29.91,4.83,26.34,1011.73,2033.99,2951.83,3016.52,3280.36,350.43,346.09,6.29,0000 0000 0000 0000 000000
2015-04-29 11:06:02,0.13,1.08,0.00,23.30,27.15,30.01,4.73,26.40,1011.74,2033.99,2950.32,3015.35,3278.92,349.57,345.49,6.32,0000 0000 0000 0000 000000
2015-04-29 11:11:04,0.16,1.08,0.00,23.28,27.15,30.05,4.75,26.31,1011.73,2033.99,2948.70,3014.01,3277.61,350.09,345.60,6.35,0000 0000 0000 0000 000000
2015-04-29 11:16:05,0.16,1.09,0.00,23.24,27.15,30.07,4.71,26.34,1011.75,2033.99,2946.84,3012.67,3276.12,349.31,345.12,6.38,0000 0000 0000 0000 000000
2015-04-29 11:21:07,0.17,1.09,0.00,23.21,27.15,30.10,4.73,26.30,1011.74,2033.99,2944.92,3011.30,3274.66,349.51,345.33,6.41,0000 0000 0000 0000 000000
2015-04-29 11:26:08,0.16,1.10,0.00,23.19,27.15,30.09,4.72,26.32,1011.74,2033.99,2943.09,3009.87,3273.14,349.58,345.43,6.44,0000 0000 0000 0000 000000
2015-04-29 11:31:10,0.17,1.10,0.00,23.16,27.15,30.05,4.88,26.36,1011.74,2033.99,2941.15,3008.56,3271.68,350.70,346.53,6.47,0000 0000 0000 0000 000000
2015-04-29 11:36:11,0.15,1.11,0.00,23.29,27.15,30.03,4.83,26.47,1011.74,2033.99,2939.20,3007.22,3270.12,349.98,345.63,6.50,0000 0000 0000 0000 000000
2015-04-29 11:41:12,0.16,1.11,0.00,23.51,27.15,29.98,4.78,26.45,1011.73,2033.99,2937.43,3005.87,3268.63,350.04,345.74,6.53,0000 0000 0000 0000 000000
2015-04-29 11:46:13,0.16,1.12,0.00,23.55,27.16,30.00,4.69,26.42,1011.73,2033.99,2935.60,3004.59,3267.23,349.39,344.52,6.56,0000 0000 0000 0000 000000
2015-04-29 11:51:14,0.16,1.12,0.00,23.44,27.17,30.02,4.67,26.32,1011.73,2033.98,2933.61,3003.12,3265.65,349.60,345.11,6.59,0000 0000 0000 0000 000000
2015-04-29 11:56:16,0.16,1.13,0.00,23.32,27.17,30.07,4.78,26.41,1011.73,2033.98,2931.89,3001.84,3264.24,350.02,345.59,6.62,0000 0000 0000 0000 000000
2015-04-29 12:01:17,0.14,1.13,0.00,23.29,27.17,30.10,4.80,26.52,1011.73,2033.97,2930.43,3000.60,3262.96,349.93,345.86,6.65,0000 0000 0000 0000 000000
2015-04-29 12:06:18,0.13,1.13,0.00,23.21,27.17,30.11,4.71,26.42,1011.73,2033.97,2928.89,2999.46,3261.74,350.11,345.62,6.67,0000 0000 0000 0000 000000
2015-04-29 12:11:20,0.13,1.14,0.00,23.13,27.17,30.10,4.88,26.42,1011.73,2033.95,2927.42,2998.13,3260.38,350.29,346.15,6.70,0000 0000 0000 0000 000000
2015-04-29 12:16:21,0.16,1.14,0.00,23.06,27.17,30.06,4.72,26.29,1011.73,2033.95,2925.80,2996.86,3258.89,349.67,345.74,6.73,0000 0000 0000 0000 000000
2015-04-29 12:21:22,0.15,1.15,0.00,23.02,27.17,30.01,4.79,26.38,1011.73,2033.96,2924.26,2995.61,3257.57,350.41,346.49,6.76,0000 0000 0000 0000 000000
2015-04-29 12:26:24,0.14,1.15,0.00,23.13,27.17,29.97,4.77,26.48,1011.74,2033.98,2922.75,2994.40,3256.25,349.72,345.65,6.79,0000 0000 0000 0000 000000
2015-04-29 12:31:25,0.13,1.16,0.00,23.27,27.17,29.95,4.70,26.41,1011.74,2033.97,2921.30,2993.23,3254.92,349.96,345.53,6.82,0000 0000 0000 0000 000000
2015-04-29 12:36:26,0.13,1.16,0.00,23.40,27.17,29.96,4.73,26.40,1011.75,2033.94,2919.78,2992.08,3253.64,349.86,345.47,6.85,0000 0000 0000 0000 000000
2015-04-29 12:41:28,0.14,1.16,0.00,23.34,27.17,29.98,4.74,26.28,1011.74,2033.95,2918.26,2990.94,3252.40,350.16,345.48,6.88,0000 0000 0000 0000 000000
2015-04-29 12:46:29,0.14,1.17,0.00,23.15,27.17,30.02,4.76,26.29,1011.74,2033.92,2916.73,2989.73,3251.20,349.72,345.63,6.91,0000 0000 0000 0000 000000
2015-04-29 12:51:30,0.15,1.17,0.00,23.11,27.17,30.11,4.74,26.31,1011.74,2033.88,2915.22,2988.56,3249.80,349.66,345.55,6.94,0000 0000 0000 0000 000000
2015-04-29 12:56:31,0.12,1.18,0.00,23.04,27.17,30.08,4.78,26.34,1011.73,2033.78,2913.60,2987.35,3248.53,350.05,346.06,6.97,0000 0000 0000 0000 000000
2015-04-29 13:01:33,0.17,1.18,0.00,22.96,27.17,29.98,4.81,26.28,1011.73,2033.85,2911.91,2985.96,3247.13,350.03,346.21,7.00,0000 0000 0000 0000 000000
2015-04-29 13:06:34,0.17,1.19,0.00,23.06,27.17,30.00,4.83,26.31,1011.73,2033.91,2910.27,2984.61,3245.63,350.49,346.27,7.03,0000 0000 0000 0000 000000